******************************************************************************* JPL/HORIZONS (2022 NX1) 2025-Dec-12 17:57:50 Rec #:50503697 (+COV) Soln.date: 2022-Nov-21_05:23:57 # obs: 172 (142 days) IAU76/J2000 helio. ecliptic osc. elements (au, days, deg., period=Julian yrs): EPOCH= 2459784.5 ! 2022-Jul-24.00 (TDB) Residual RMS= .23873 EC= .02319694083292023 QR= .9786495292931212 TP= 2459965.5357580436 OM= 287.9922192042926 W= 190.4955802990382 IN= 1.246174566232931 A= 1.001890319761709 MA= 182.0745110264518 ADIST= 1.025131110230297 PER= 1.00286 N= .9828195870000001 ANGMOM= .017213717 DAN= 1.02472 DDN= .97902 L= 118.4853722 B= -.2269855 MOID= .00520785 TP= 2023-Jan-21.0357580436 Asteroid physical parameters (km, seconds, rotational period in hours): GM= n.a. RAD= n.a. ROTPER= n.a. H= 28.07 G= .150 B-V= n.a. ALBEDO= n.a. STYP= n.a. ASTEROID comments: 1: soln ref.= JPL#15, OCC=1 2: source=ORB ******************************************************************************* ******************************************************************************* Ephemeris / WWW_USER Fri Dec 12 17:57:50 2025 Pasadena, USA / Horizons ******************************************************************************* Target body name: (2022 NX1) {source: JPL#15} Center body name: Earth (399) {source: DE441} Center-site name: BODY CENTER ******************************************************************************* Start time : A.D. 2022-Jun-01 00:00:00.0000 TDB Stop time : A.D. 2022-Jul-31 00:00:00.0000 TDB Step-size : 1440 minutes ******************************************************************************* Center geodetic : 0.0, 0.0, 0.0 {E-lon(deg),Lat(deg),Alt(km)} Center cylindric: 0.0, 0.0, 0.0 {E-lon(deg),Dxy(km),Dz(km)} Center radii : 6378.137, 6378.137, 6356.752 km {Equator_a, b, pole_c} Keplerian GM : 8.8876924467071033E-10 au^3/d^2 Small perturbers: Yes {source: SB441-N16} Output units : AU-D, deg, Julian Day Number (Tp) Calendar mode : Mixed Julian/Gregorian Output type : GEOMETRIC osculating elements Output format : 10 EOP file : eop.251212.p260310 EOP coverage : DATA-BASED 1962-JAN-20 TO 2025-DEC-12. PREDICTS-> 2026-MAR-09 Reference frame : Ecliptic of J2000.0 ******************************************************************************* Initial IAU76/J2000 heliocentric ecliptic osculating elements (au, days, deg.): EPOCH= 2459784.5 ! 2022-Jul-24.00 (TDB) Residual RMS= .23873 EC= .02319694083292023 QR= .9786495292931212 TP= 2459965.5357580436 OM= 287.9922192042926 W= 190.4955802990382 IN= 1.246174566232931 Equivalent ICRF heliocentric cartesian coordinates (au, au/d): X= 5.197551010177811E-01 Y=-8.125752314384708E-01 Z=-3.470447973164739E-01 VX= 1.446240437248744E-02 VY= 7.680062341323702E-03 VZ= 3.718283192544251E-03 Asteroid physical parameters (km, seconds, rotational period in hours): GM= n.a. RAD= n.a. ROTPER= n.a. H= 28.07 G= .150 B-V= n.a. ALBEDO= n.a. STYP= n.a. ******************************************************************************* JDTDB EC QR IN OM W Tp N MA TA A AD PR ******************************************************************************* $$SOE 2459731.500000000 = A.D. 2022-Jun-01 00:00:00.0000 TDB EC= 1.231466968004870E+00 QR= 5.782901919587489E-03 IN= 9.939592557091296E+01 OM= 2.693276533253710E+02 W = 2.762649144630745E+02 Tp= 2459753.098923041485 N = 4.325456369536048E-01 MA=-9.342519924468093E+00 TA= 2.801652157743354E+02 A =-2.498370272628195E-02 AD= 9.999999999999998E+99 PR= 9.999999999999998E+99 2459732.500000000 = A.D. 2022-Jun-02 00:00:00.0000 TDB EC= 1.212876850297966E+00 QR= 5.781028777296957E-03 IN= 9.985258553844020E+01 OM= 2.694721145008472E+02 W = 2.766321997544164E+02 Tp= 2459753.280148227699 N = 3.816823681221687E-01 MA=-7.931416185401012E+00 TA= 2.815981246681209E+02 A =-2.715668128876012E-02 AD= 9.999999999999998E+99 PR= 9.999999999999998E+99 2459733.500000000 = A.D. 2022-Jun-03 00:00:00.0000 TDB EC= 1.194370442416047E+00 QR= 5.777479099270720E-03 IN= 1.003049611856500E+02 OM= 2.696318924714516E+02 W = 2.770195822039945E+02 Tp= 2459753.456079532858 N = 3.333150330354095E-01 MA=-6.651661308815651E+00 TA= 2.831179369714839E+02 A =-2.972406209223996E-02 AD= 9.999999999999998E+99 PR= 9.999999999999998E+99 2459734.500000000 = A.D. 2022-Jun-04 00:00:00.0000 TDB EC= 1.175721926775093E+00 QR= 5.772495155431379E-03 IN= 1.007509309507121E+02 OM= 2.698072723587190E+02 W = 2.774298052275737E+02 Tp= 2459753.629067826550 N = 2.868868952677427E-01 MA=-5.487878878059419E+00 TA= 2.847295289954094E+02 A =-3.285016993251860E-02 AD= 9.999999999999998E+99 PR= 9.999999999999998E+99 2459735.500000000 = A.D. 2022-Jun-05 00:00:00.0000 TDB EC= 1.156714652329711E+00 QR= 5.766215181713340E-03 IN= 1.011877604102269E+02 OM= 2.699981640336525E+02 W = 2.778664395272239E+02 Tp= 2459753.801234689541 N = 2.420166687344780E-01 MA=-4.429203853301622E+00 TA= 2.864372883316241E+02 A =-3.679435902127295E-02 AD= 9.999999999999998E+99 PR= 9.999999999999998E+99 2459736.500000000 = A.D. 2022-Jun-06 00:00:00.0000 TDB EC= 1.137137268383742E+00 QR= 5.758663839733833E-03 IN= 1.016120665603332E+02 OM= 2.702039491194080E+02 W = 2.783342151854786E+02 Tp= 2459753.974577713758 N = 1.985033278226191E-01 MA=-3.468761828449103E+00 TA= 2.882446674555529E+02 A =-4.199196839490581E-02 AD= 9.999999999999998E+99 PR= 9.999999999999998E+99 2459737.500000000 = A.D. 2022-Jun-07 00:00:00.0000 TDB EC= 1.116777805558038E+00 QR= 5.749759387107086E-03 IN= 1.020197274077698E+02 OM= 2.704232538967403E+02 W = 2.788392476258623E+02 Tp= 2459754.151094852481 N = 1.563446770362711E-01 MA=-2.603310046981567E+00 TA= 2.901537862970135E+02 A =-4.923674802443039E-02 AD= 9.999999999999998E+99 PR= 9.999999999999998E+99 2459738.500000000 = A.D. 2022-Jun-08 00:00:00.0000 TDB EC= 1.095422191180434E+00 QR= 5.739326994445145E-03 IN= 1.024057844816184E+02 OM= 2.706536413074967E+02 W = 2.793891433612944E+02 Tp= 2459754.332871295046 N = 1.157976551390225E-01 MA=-1.833409370084184E+00 TA= 2.921650882656162E+02 A =-6.014666948480214E-02 AD= 9.999999999999998E+99 PR= 9.999999999999998E+99 2459739.500000000 = A.D. 2022-Jun-09 00:00:00.0000 TDB EC= 1.072863857283441E+00 QR= 5.727112713163927E-03 IN= 1.027643656014991E+02 OM= 2.708912091352952E+02 W = 2.799929379443908E+02 Tp= 2459754.522087118588 N = 7.751429173062908E-02 MA=-1.164426443309731E+00 TA= 2.942770906049140E+02 A =-7.860018569817757E-02 AD= 9.999999999999998E+99 PR= 9.999999999999998E+99 2459740.500000000 = A.D. 2022-Jun-10 00:00:00.0000 TDB EC= 1.048931520404190E+00 QR= 5.712803707893639E-03 IN= 1.030887113235379E+02 OM= 2.711301228160794E+02 W = 2.806606804096324E+02 Tp= 2459754.720900815912 N = 4.281798778567444E-02 MA=-6.089103574319485E-01 TA= 2.964864281212405E+02 A =-1.167509952828786E-01 AD= 9.999999999999998E+99 PR= 9.999999999999998E+99 2459741.500000000 = A.D. 2022-Jun-11 00:00:00.0000 TDB EC= 1.023541153690554E+00 QR= 5.696068637724874E-03 IN= 1.033714659956372E+02 OM= 2.713622074927584E+02 W = 2.814023426437653E+02 Tp= 2459754.931155222934 N = 1.435145502675261E-02 MA=-1.927566201398970E-01 TA= 2.987885693386232E+02 A =-2.419621702741988E-01 AD= 9.999999999999998E+99 PR= 9.999999999999998E+99 2459742.500000000 = A.D. 2022-Jun-12 00:00:00.0000 TDB EC= 9.967718749319666E-01 QR= 5.676633022634334E-03 IN= 1.036054260019354E+02 OM= 2.715768559777816E+02 W = 2.822257141818326E+02 Tp= 2459755.153868404683 N = 7.324979959656387E-04 MA= 3.599907310667525E+02 TA= 3.011796649692142E+02 A = 1.758492283600571E+00 AD= 3.511307934178507E+00 PR= 4.914689213933187E+05 2459743.500000000 = A.D. 2022-Jun-13 00:00:00.0000 TDB EC= 9.689510513420792E-01 QR= 5.654393532495603E-03 IN= 1.037848465352900E+02 OM= 2.717616072763183E+02 W = 2.831331926262402E+02 Tp= 2459755.388545460533 N = 2.197902603430576E-02 MA= 3.597387013498162E+02 TA= 3.036597899662613E+02 A = 1.821122381563521E-01 AD= 3.585700827802086E-01 PR= 1.637925172107705E+04 2459744.500000000 = A.D. 2022-Jun-14 00:00:00.0000 TDB EC= 9.407147414905306E-01 QR= 5.629549674596577E-03 IN= 1.039071363845707E+02 OM= 2.719036758248427E+02 W = 2.841180121804391E+02 Tp= 2459755.632488271687 N = 5.837497863809386E-02 MA= 3.593501412349389E+02 TA= 3.062371845659293E+02 A = 9.495698958110177E-02 AD= 1.842844294876070E-01 PR= 6.167025811382040E+03 2459745.500000000 = A.D. 2022-Jun-15 00:00:00.0000 TDB EC= 9.130000571546020E-01 QR= 5.602700044042824E-03 IN= 1.039743867494668E+02 OM= 2.719923401847226E+02 W = 2.851613117272298E+02 Tp= 2459755.880430902354 N = 1.045200320694086E-01 MA= 3.589150370292028E+02 TA= 3.089320826781851E+02 A = 6.439889338776957E-02 AD= 1.231950867314963E-01 PR= 3.444315820348532E+03 2459746.500000000 = A.D. 2022-Jun-16 00:00:00.0000 TDB EC= 8.869445867511790E-01 QR= 5.574838708399534E-03 IN= 1.039939611190487E+02 OM= 2.720215265834800E+02 W = 2.862319117240164E+02 Tp= 2459756.124848931096 N = 1.559932202924330E-01 MA= 3.584985888204178E+02 TA= 3.117779866391655E+02 A = 4.931067472311123E-02 AD= 9.304651073782293E-02 PR= 2.307792603583189E+03 2459747.500000000 = A.D. 2022-Jun-17 00:00:00.0000 TDB EC= 8.637140894755042E-01 QR= 5.547220428877648E-03 IN= 1.039776320152866E+02 OM= 2.719915616291586E+02 W = 2.872899986432832E+02 Tp= 2459756.357064695098 N = 2.080081951635393E-01 MA= 3.581576579582926E+02 TA= 3.148187230273817E+02 A = 4.070281665602254E-02 AD= 7.585841288316743E-02 PR= 1.730701041451575E+03 2459748.500000000 = A.D. 2022-Jun-18 00:00:00.0000 TDB EC= 8.443204737281722E-01 QR= 5.521131512709655E-03 IN= 1.039394423482618E+02 OM= 2.719093253500964E+02 W = 2.882941131270986E+02 Tp= 2459756.568876735866 N = 2.557538942049128E-01 MA= 3.579363533529731E+02 TA= 3.181014703189703E+02 A = 3.546472452048287E-02 AD= 6.540831752825609E-02 PR= 1.407603200409391E+03 2459749.500000000 = A.D. 2022-Jun-19 00:00:00.0000 TDB EC= 8.294916553397124E-01 QR= 5.497657263933411E-03 IN= 1.038930908316940E+02 OM= 2.717867828213289E+02 W = 2.892090184291340E+02 Tp= 2459756.754149053711 N = 2.950319884300351E-01 MA= 3.578597939802567E+02 TA= 3.216680481305149E+02 A = 3.224274609484163E-02 AD= 5.898783492574985E-02 PR= 1.220206669506184E+03 2459750.500000000 = A.D. 2022-Jun-20 00:00:00.0000 TDB EC= 8.196183971734240E-01 QR= 5.477535781869540E-03 IN= 1.038497374039062E+02 OM= 2.716385057221018E+02 W = 2.900114027616333E+02 Tp= 2459756.909790764563 N = 3.227956465042989E-01 MA= 3.579309474462606E+02 TA= 3.255476637558590E+02 A = 3.036637714731811E-02 AD= 5.525521851276667E-02 PR= 1.115256676781747E+03 2459751.500000000 = A.D. 2022-Jun-21 00:00:00.0000 TDB EC= 8.147723541878281E-01 QR= 5.461134587674303E-03 IN= 1.038167801954668E+02 OM= 2.714789697368719E+02 W = 2.906912231726564E+02 Tp= 2459757.035786426626 N = 3.374050140764444E-01 MA= 3.581321979028554E+02 TA= 3.297535929553673E+02 A = 2.948336660938888E-02 AD= 5.350559863110346E-02 PR= 1.066966953604419E+03 2459752.500000000 = A.D. 2022-Jun-22 00:00:00.0000 TDB EC= 8.147854434776034E-01 QR= 5.448512515757020E-03 IN= 1.037977436551183E+02 OM= 2.713204370424341E+02 W = 2.912487380680241E+02 Tp= 2459757.134344404098 N = 3.385422576774327E-01 MA= 3.584310785825429E+02 TA= 3.342840950553035E+02 A = 2.941730184742881E-02 AD= 5.338609117910061E-02 PR= 1.063382758978976E+03 2459753.500000000 = A.D. 2022-Jun-23 00:00:00.0000 TDB EC= 8.193659451738993E-01 QR= 5.439482610423198E-03 IN= 1.037930067625428E+02 OM= 2.711722533746807E+02 W = 2.916903941925118E+02 Tp= 2459757.208808923606 N = 3.268738653380867E-01 MA= 3.587876872913975E+02 TA= 3.391247878920548E+02 A = 3.011327302406999E-02 AD= 5.478706343771678E-02 PR= 1.101342255146801E+03 2459754.500000000 = A.D. 2022-Jun-24 00:00:00.0000 TDB EC= 8.281815858014443E-01 QR= 5.433635018306167E-03 IN= 1.038006822380355E+02 OM= 2.710416151643129E+02 W = 2.920272677642652E+02 Tp= 2459757.263140172698 N = 3.037288222544452E-01 MA= 3.591607546896333E+02 TA= 3.442489894377359E+02 A = 3.162428802320916E-02 AD= 5.781494102811217E-02 PR= 1.185267823211109E+03 2459755.500000000 = A.D. 2022-Jun-25 00:00:00.0000 TDB EC= 8.408555562876568E-01 QR= 5.430368854233062E-03 IN= 1.038170877048415E+02 OM= 2.709345288513184E+02 W = 2.922753089742785E+02 Tp= 2459757.301905888598 N = 2.709944317716387E-01 MA= 3.595116935376196E+02 TA= 3.496166437563643E+02 A = 3.412226482784760E-02 AD= 6.281416080146213E-02 PR= 1.328440579559083E+03 2459756.500000000 = A.D. 2022-Jun-26 00:00:00.0000 TDB EC= 8.569166981880026E-01 QR= 5.428972072961528E-03 IN= 1.038369512856443E+02 OM= 2.708558803399887E+02 W = 2.924538811751665E+02 Tp= 2459757.330056472216 N = 2.311128855614767E-01 MA= 3.598081632535746E+02 TA= 3.551752967410122E+02 A = 3.794273688270664E-02 AD= 7.045650169245175E-02 PR= 1.557680347962420E+03 2459757.500000000 = A.D. 2022-Jun-27 00:00:00.0000 TDB EC= 8.757747291651627E-01 QR= 5.428712889710655E-03 IN= 1.038537418817182E+02 OM= 2.708089127261517E+02 W = 2.925821781016266E+02 Tp= 2459757.352288880385 N = 1.869763851758731E-01 MA= 2.761849118821848E-02 TA= 8.638930800069258E-01 A = 4.370055185412636E-02 AD= 8.197239081854207E-02 PR= 1.925376831204528E+03 2459758.500000000 = A.D. 2022-Jun-28 00:00:00.0000 TDB EC= 8.967385605479865E-01 QR= 5.428898681204731E-03 IN= 1.038601978321319E+02 OM= 2.707948134608956E+02 W = 2.926757578685375E+02 Tp= 2459757.372392341960 N = 1.416957416125144E-01 MA= 1.597772033753010E-01 TA= 6.617550535738205E+00 A = 5.257430760228356E-02 AD= 9.971971652336241E-02 PR= 2.540655039475125E+03 2459759.500000000 = A.D. 2022-Jun-29 00:00:00.0000 TDB EC= 9.190597988353685E-01 QR= 5.428897669441800E-03 IN= 1.038489181319864E+02 OM= 2.708126540691393E+02 W = 2.927447122940013E+02 Tp= 2459757.392892168835 N = 9.833227272016425E-02 MA= 2.071967018890246E-01 TA= 1.237186503579744E+01 A = 6.707294510424444E-02 AD= 1.287169925390471E-01 PR= 3.661056436928845E+03 2459760.500000000 = A.D. 2022-Jun-30 00:00:00.0000 TDB EC= 9.419831946881769E-01 QR= 5.428140661578862E-03 IN= 1.038129008990130E+02 OM= 2.708596035875649E+02 W = 2.927935620434389E+02 Tp= 2459757.415032819379 N = 5.968582725237885E-02 MA= 1.841288182243841E-01 TA= 1.806637232185707E+01 A = 9.356152294846695E-02 AD= 1.816949052353550E-01 PR= 6.031582648218247E+03 2459761.500000000 = A.D. 2022-Jul-01 00:00:00.0000 TDB EC= 9.647934504470911E-01 QR= 5.426119995435797E-03 IN= 1.037459798949165E+02 OM= 2.709312909735589E+02 W = 2.928223287362435E+02 Tp= 2459757.438998904079 N = 2.823047895221826E-02 MA= 1.146440059663490E-01 TA= 2.364718771356645E+01 A = 1.541224591544077E-01 AD= 3.028187983133797E-01 PR= 1.275217471900923E+04 2459762.500000000 = A.D. 2022-Jul-02 00:00:00.0000 TDB EC= 9.868524986642648E-01 QR= 5.422395718664766E-03 IN= 1.036431516550125E+02 OM= 2.710222270822731E+02 W = 2.928281675779219E+02 Tp= 2459757.464247393422 N = 6.449041383034116E-03 MA= 3.247577695351910E-02 TA= 2.906882473713314E+01 A = 4.124278507526444E-01 AD= 8.194333057866240E-01 PR= 5.582224994664693E+04 2459763.500000000 = A.D. 2022-Jul-03 00:00:00.0000 TDB EC= 1.007624375572746E+00 QR= 5.416612314636146E-03 IN= 1.035008128331132E+02 OM= 2.711262270238639E+02 W = 2.928070802441193E+02 Tp= 2459757.489847557154 N = 2.852541254215918E-03 MA= 1.714420778725572E-02 TA= 3.429514158928376E+01 A =-7.104335644217599E-01 AD= 9.999999999999998E+99 PR= 9.999999999999998E+99 2459764.500000000 = A.D. 2022-Jul-04 00:00:00.0000 TDB EC= 1.026687651303313E+00 QR= 5.408524598304251E-03 IN= 1.033169492249141E+02 OM= 2.712367957348961E+02 W = 2.927554074455446E+02 Tp= 2459757.514762981329 N = 1.872252672758270E-02 MA= 1.307812867817200E-01 TA= 3.929940640256249E+01 A =-2.026601942911658E-01 AD= 9.999999999999998E+99 PR= 9.999999999999998E+99 2459765.500000000 = A.D. 2022-Jul-05 00:00:00.0000 TDB EC= 1.043737865189855E+00 QR= 5.398028417812372E-03 IN= 1.030913312222045E+02 OM= 2.713474627331661E+02 W = 2.926709581937563E+02 Tp= 2459757.538046891335 N = 3.939587618798635E-02 MA= 3.136681188798734E-01 TA= 4.406358568049296E+01 A =-1.234177387117751E-01 AD= 9.999999999999998E+99 PR= 9.999999999999998E+99 2459766.500000000 = A.D. 2022-Jul-06 00:00:00.0000 TDB EC= 1.058583888539464E+00 QR= 5.385189255602767E-03 IN= 1.028257651192973E+02 OM= 2.714520778516286E+02 W = 2.925537297232827E+02 Tp= 2459757.558949591126 N = 6.128906240305303E-02 MA= 5.479885964569444E-01 TA= 4.857708826618791E+01 A =-9.192270076055296E-02 AD= 9.999999999999998E+99 PR= 9.999999999999998E+99 2459767.500000000 = A.D. 2022-Jul-07 00:00:00.0000 TDB EC= 1.071142294192114E+00 QR= 5.370257884431632E-03 IN= 1.025244118901443E+02 OM= 2.715451026154693E+02 W = 2.924061873003732E+02 Tp= 2459757.576952258591 N = 8.235997922998320E-02 MA= 8.172620058871595E-01 TA= 5.283530331814880E+01 A =-7.548614991146747E-02 AD= 9.999999999999998E+99 PR= 9.999999999999998E+99 2459768.500000000 = A.D. 2022-Jul-08 00:00:00.0000 TDB EC= 1.081432978790534E+00 QR= 5.353655163956436E-03 IN= 1.021940988473894E+02 OM= 2.716219405368173E+02 W = 2.922330080274220E+02 Tp= 2459757.591747768223 N = 1.013309308016989E-01 MA= 1.105343352087584E+00 TA= 5.683834780953735E+01 A =-6.574308398723001E-02 AD= 9.999999999999998E+99 PR= 9.999999999999998E+99 2459769.500000000 = A.D. 2022-Jul-09 00:00:00.0000 TDB EC= 1.089578575174808E+00 QR= 5.335898230972207E-03 IN= 1.018444154535474E+02 OM= 2.716793257993597E+02 W = 2.920400957286055E+02 Tp= 2459757.603198728524 N = 1.174930181078533E-01 MA= 1.397791087226738E+00 TA= 6.059046843820651E+01 A =-5.956667898054274E-02 AD= 9.999999999999998E+99 PR= 9.999999999999998E+99 2459770.500000000 = A.D. 2022-Jul-10 00:00:00.0000 TDB EC= 1.095811126765859E+00 QR= 5.317436656437145E-03 IN= 1.014872876086215E+02 OM= 2.717157149381154E+02 W = 2.918327209187324E+02 Tp= 2459757.611340874806 N = 1.306434302686134E-01 MA= 1.683818639658265E+00 TA= 6.410039181346180E+01 A =-5.549915584890038E-02 AD= 9.999999999999998E+99 PR= 9.999999999999998E+99 2459771.500000000 = A.D. 2022-Jul-11 00:00:00.0000 TDB EC= 1.100488861694331E+00 QR= 5.298399227692103E-03 IN= 1.011359054482870E+02 OM= 2.717315256964660E+02 W = 2.916131787956562E+02 Tp= 2459757.616571061313 N = 1.410837560199609E-01 MA= 1.958726301092975E+00 TA= 6.738228501020946E+01 A =-5.272623391644025E-02 AD= 9.999999999999998E+99 PR= 9.999999999999998E+99 2459772.500000000 = A.D. 2022-Jul-12 00:00:00.0000 TDB EC= 1.104105602340321E+00 QR= 5.278349312592925E-03 IN= 1.008033602615631E+02 OM= 2.717290710327673E+02 W = 2.913792707547687E+02 Tp= 2459757.620093486272 N = 1.496170548380425E-01 MA= 2.226287788864961E+00 TA= 7.045604194797180E+01 A =-5.070187572939634E-02 AD= 9.999999999999998E+99 PR= 9.999999999999998E+99 2459773.500000000 = A.D. 2022-Jul-13 00:00:00.0000 TDB EC= 1.107235339842018E+00 QR= 5.256209579126433E-03 IN= 1.005010927814677E+02 OM= 2.717121757876751E+02 W = 2.911243872742088E+02 Tp= 2459757.624229947571 N = 1.574037337112997E-01 MA= 2.498905481815285E+00 TA= 7.334615043140511E+01 A =-4.901564714458908E-02 AD= 9.999999999999998E+99 PR= 9.999999999999998E+99 2459774.500000000 = A.D. 2022-Jul-14 00:00:00.0000 TDB EC= 1.110389176601196E+00 QR= 5.230365867583577E-03 IN= 1.002362080640557E+02 OM= 2.716853916820764E+02 W = 2.908376893973247E+02 Tp= 2459757.631980862934 N = 1.656184738905450E-01 MA= 2.793655587067257E+00 TA= 7.608063593354521E+01 A =-4.738114757825714E-02 AD= 9.999999999999998E+99 PR= 9.999999999999998E+99 2459775.500000000 = A.D. 2022-Jul-15 00:00:00.0000 TDB EC= 1.113881543554364E+00 QR= 5.198830820725300E-03 IN= 1.000081084924959E+02 OM= 2.716526497783408E+02 W = 2.905038020676542E+02 Tp= 2459757.646151877940 N = 1.751211623980884E-01 MA= 3.126586636410247E+00 TA= 7.869063820858624E+01 A =-4.565121492442280E-02 AD= 9.999999999999998E+99 PR= 9.999999999999998E+99 2459776.500000000 = A.D. 2022-Jul-16 00:00:00.0000 TDB EC= 1.117795415783922E+00 QR= 5.159474638208887E-03 IN= 9.980719107561835E+01 OM= 2.716157684456099E+02 W = 2.901041594163354E+02 Tp= 2459757.668884329963 N = 1.863380311611271E-01 MA= 3.508953018509851E+00 TA= 8.120856678018484E+01 A =-4.380030074916615E-02 AD= 9.999999999999998E+99 PR= 9.999999999999998E+99 2459777.500000000 = A.D. 2022-Jul-17 00:00:00.0000 TDB EC= 1.122026683130104E+00 QR= 5.110338524629878E-03 IN= 9.961671018450564E+01 OM= 2.715735934080449E+02 W = 2.896203886415989E+02 Tp= 2459757.701695688069 N = 1.993080527488915E-01 MA= 3.945961480164389E+00 TA= 8.366456848344959E+01 A =-4.187886119285314E-02 AD= 9.999999999999998E+99 PR= 9.999999999999998E+99 2459778.500000000 = A.D. 2022-Jul-18 00:00:00.0000 TDB EC= 1.126356772899804E+00 QR= 5.049916949242291E-03 IN= 9.941623846879732E+01 OM= 2.715220420163748E+02 W = 2.890376710559581E+02 Tp= 2459757.745698448271 N = 2.137905852136026E-01 MA= 4.437074274395666E+00 TA= 8.608334732483388E+01 A =-3.996554227644519E-02 AD= 9.999999999999998E+99 PR= 9.999999999999998E+99 2459779.500000000 = A.D. 2022-Jul-19 00:00:00.0000 TDB EC= 1.130523309669785E+00 QR= 4.977303516322790E-03 IN= 9.918480440988358E+01 OM= 2.714547426708363E+02 W = 2.883465452521882E+02 Tp= 2459757.801799169742 N = 2.293813320433138E-01 MA= 4.977162209344140E+00 TA= 8.848273529344712E+01 A =-3.813344550421698E-02 AD= 9.999999999999998E+99 PR= 9.999999999999998E+99 2459780.500000000 = A.D. 2022-Jul-20 00:00:00.0000 TDB EC= 1.134273939533430E+00 QR= 4.892197214529727E-03 IN= 9.890276651869716E+01 OM= 2.713638083033528E+02 W = 2.875431002286007E+02 Tp= 2459757.870819466189 N = 2.456115601884540E-01 MA= 5.557988336732221E+00 TA= 9.087392359582131E+01 A =-3.643445058310612E-02 AD= 9.999999999999998E+99 PR= 9.999999999999998E+99 2459781.500000000 = A.D. 2022-Jul-21 00:00:00.0000 TDB EC= 1.137398557148021E+00 QR= 4.794829759634760E-03 IN= 9.855241711804950E+01 OM= 2.712404368962548E+02 W = 2.866282649959283E+02 Tp= 2459757.953527645208 N = 2.620176886178340E-01 MA= 6.169592261452065E+00 TA= 9.326255987317495E+01 A =-3.489723516142339E-02 AD= 9.999999999999998E+99 PR= 9.999999999999998E+99 2459782.500000000 = A.D. 2022-Jul-22 00:00:00.0000 TDB EC= 1.139742922197768E+00 QR= 4.685877602771471E-03 IN= 9.811775403903138E+01 OM= 2.710752473228935E+02 W = 2.856069170925490E+02 Tp= 2459758.050588057842 N = 2.781797173827001E-01 MA= 6.801330504240364E+00 TA= 9.564996219190297E+01 A =-3.353212834736569E-02 AD= 9.999999999999998E+99 PR= 9.999999999999998E+99 2459783.500000000 = A.D. 2022-Jul-23 00:00:00.0000 TDB EC= 1.141210174149003E+00 QR= 4.566396216500488E-03 IN= 9.758390350977784E+01 OM= 2.708584009016622E+02 W = 2.844872462636075E+02 Tp= 2459758.162444507238 N = 2.937350262559746E-01 MA= 7.442527527862933E+00 TA= 9.803402743665518E+01 A =-3.233758646655376E-02 AD= 9.999999999999998E+99 PR= 9.999999999999998E+99 2459784.500000000 = A.D. 2022-Jul-24 00:00:00.0000 TDB EC= 1.141756451522981E+00 QR= 4.437787892658631E-03 IN= 9.693654777041206E+01 OM= 2.705796122822222E+02 W = 2.832805295037916E+02 Tp= 2459758.289155958686 N = 3.083767164318685E-01 MA= 8.082814020335164E+00 TA= 1.004097083880274E+02 A =-3.130572079775285E-02 AD= 9.999999999999998E+99 PR= 9.999999999999998E+99 2459785.500000000 = A.D. 2022-Jul-25 00:00:00.0000 TDB EC= 1.141384793021865E+00 QR= 4.301797406943025E-03 IN= 9.616156800029809E+01 OM= 2.702281532007034E+02 W = 2.820012966520846E+02 Tp= 2459758.430202003568 N = 3.218446258431022E-01 MA= 8.712269007750001E+00 TA= 1.027691100657586E+02 A =-3.042616758846016E-02 AD= 9.999999999999998E+99 PR= 9.999999999999998E+99 2459786.500000000 = A.D. 2022-Jul-26 00:00:00.0000 TDB EC= 1.140139357026359E+00 QR= 4.160521750415983E-03 IN= 9.524501585978861E+01 OM= 2.697929328213539E+02 W = 2.806677756186754E+02 Tp= 2459758.584276636597 N = 3.339147680135657E-01 MA= 9.321472290876731E+00 TA= 1.051013350285186E+02 A =-2.968846039184707E-02 AD= 9.999999999999998E+99 PR= 9.999999999999998E+99 2459787.500000000 = A.D. 2022-Jul-27 00:00:00.0000 TDB EC= 1.138100403891225E+00 QR= 4.016417409986116E-03 IN= 9.417347273089896E+01 OM= 2.692627149243247E+02 W = 2.793024612700690E+02 Tp= 2459758.749093114398 N = 3.443906109981396E-01 MA= 9.901542389050274E+00 TA= 1.073922348912502E+02 A =-2.908331400065754E-02 AD= 9.999999999999998E+99 PR= 9.999999999999998E+99 2459788.500000000 = A.D. 2022-Jul-28 00:00:00.0000 TDB EC= 1.135379532125581E+00 QR= 3.872289252326122E-03 IN= 9.293482288856012E+01 OM= 2.686265087390064E+02 W = 2.779326237264564E+02 Tp= 2459758.921228390653 N = 3.530977647614651E-01 MA= 1.044419813967664E+01 TA= 1.096242310954751E+02 A =-2.860321048187753E-02 AD= 9.999999999999998E+99 PR= 9.999999999999998E+99 2459789.500000000 = A.D. 2022-Jul-29 00:00:00.0000 TDB EC= 1.132114256339681E+00 QR= 3.731248157543375E-03 IN= 9.151943560201182E+01 OM= 2.678741463797842E+02 W = 2.765905512247393E+02 Tp= 2459759.096039455384 N = 3.598822830855761E-01 MA= 1.094184673561069E+01 TA= 1.117763624126139E+02 A =-2.824258532667274E-02 AD= 9.999999999999998E+99 PR= 9.999999999999998E+99 2459790.500000000 = A.D. 2022-Jul-30 00:00:00.0000 TDB EC= 1.128461057859142E+00 QR= 3.596629732449330E-03 IN= 8.992170924632462E+01 OM= 2.669970363502973E+02 W = 2.753133128850715E+02 Tp= 2459759.267682690639 N = 3.646118565689584E-01 MA= 1.138767319913687E+01 TA= 1.138246996558602E+02 A =-2.799782122604868E-02 AD= 9.999999999999998E+99 PR= 9.999999999999998E+99 2459791.500000000 = A.D. 2022-Jul-31 00:00:00.0000 TDB EC= 1.124586414321055E+00 QR= 3.471872640783762E-03 IN= 8.814187153113002E+01 OM= 2.659890619042155E+02 W = 2.741418347138498E+02 Tp= 2459759.429259635974 N = 3.671787111647835E-01 MA= 1.177569311290012E+01 TA= 1.157432379795410E+02 A =-2.786718487488410E-02 AD= 9.999999999999998E+99 PR= 9.999999999999998E+99 $$EOE ******************************************************************************* TIME Barycentric Dynamical Time ("TDB" or T_eph) output was requested. This continuous coordinate time is equivalent to the relativistic proper time of a clock at rest in a reference frame co-moving with the solar system barycenter but outside the system's gravity well. It is the independent variable in the solar system relativistic equations of motion. TDB runs at a uniform rate of one SI second per second and is independent of irregularities in Earth's rotation. CALENDAR SYSTEM Mixed calendar mode was active such that calendar dates after AD 1582-Oct-15 (if any) are in the modern Gregorian system. Dates prior to 1582-Oct-5 (if any) are in the Julian calendar system, which is automatically extended for dates prior to its adoption on 45-Jan-1 BC. The Julian calendar is useful for matching historical dates. The Gregorian calendar more accurately corresponds to the Earth's orbital motion and seasons. A "Gregorian-only" calendar mode is available if such physical events are the primary interest. REFERENCE FRAME AND COORDINATES Ecliptic at the standard reference epoch Reference epoch: J2000.0 X-Y plane: adopted Earth orbital plane at the reference epoch Note: IAU76 obliquity of 84381.448 arcseconds wrt ICRF X-Y plane X-axis : ICRF Z-axis : perpendicular to the X-Y plane in the directional (+ or -) sense of Earth's north pole at the reference epoch. Symbol meaning [1 au= 149597870.700 km, 1 day= 86400.0 s]: JDTDB Julian Day Number, Barycentric Dynamical Time EC Eccentricity, e QR Periapsis distance, q (au) IN Inclination w.r.t X-Y plane, i (degrees) OM Longitude of Ascending Node, OMEGA, (degrees) W Argument of Perifocus, w (degrees) Tp Time of periapsis (Julian Day Number) N Mean motion, n (degrees/day) MA Mean anomaly, M (degrees) TA True anomaly, nu (degrees) A Semi-major axis, a (au) AD Apoapsis distance (au) PR Sidereal orbit period (day) ABERRATIONS AND CORRECTIONS Geometric osculating elements have NO corrections or aberrations applied. Computations by ... Solar System Dynamics Group, Horizons On-Line Ephemeris System 4800 Oak Grove Drive, Jet Propulsion Laboratory Pasadena, CA 91109 USA General site: https://ssd.jpl.nasa.gov/ Mailing list: https://ssd.jpl.nasa.gov/email_list.html System news : https://ssd.jpl.nasa.gov/horizons/news.html User Guide : https://ssd.jpl.nasa.gov/horizons/manual.html Connect : browser https://ssd.jpl.nasa.gov/horizons/app.html#/x API https://ssd-api.jpl.nasa.gov/doc/horizons.html command-line telnet ssd.jpl.nasa.gov 6775 e-mail/batch https://ssd.jpl.nasa.gov/ftp/ssd/horizons_batch.txt scripts https://ssd.jpl.nasa.gov/ftp/ssd/SCRIPTS Author : Jon.D.Giorgini@jpl.nasa.gov ******************************************************************************* !$$SOF CENTER = '@399' COMMAND = '2022 NX1' OUT_UNITS = 'AU-D' START_TIME = '2022-Jun-01' STEP_SIZE = '1 day' STOP_TIME = '2022-Jul-31' TABLE_TYPE = 'ELEMENTS'